TimeEET,TemperatureF,Dew PointF,Humidity,Sea Level PressureIn,VisibilityMPH,Wind Direction,Wind SpeedMPH,Gust SpeedMPH,PrecipitationIn,Events,Conditions,WindDirDegrees,DateUTC
12:20 AM,41.0,37.4,87,30.04,6.2,North,9.2,-,N/A,,Mostly Cloudy,360,2012-12-07 22:20:00
12:50 AM,42.8,37.4,81,30.06,6.2,North,6.9,-,N/A,,Mostly Cloudy,350,2012-12-07 22:50:00
1:20 AM,42.8,37.4,81,30.06,6.2,North,8.1,-,N/A,,Mostly Cloudy,350,2012-12-07 23:20:00
1:50 AM,42.8,37.4,81,30.06,6.2,NNE,5.8,-,N/A,,Mostly Cloudy,30,2012-12-07 23:50:00
2:00 AM,43,37,71,30.08,6,NNE,5.8,,,,Partly Cloudy,30,2012-12-08 00:00:00
2:20 AM,44.6,37.4,76,30.06,6.2,Variable,5.8,-,N/A,,Mostly Cloudy,0,2012-12-08 00:20:00
2:50 AM,42.8,37.4,81,30.06,6.2,NE,3.5,-,N/A,,Mostly Cloudy,50,2012-12-08 00:50:00
3:20 AM,42.8,37.4,81,30.06,6.2,Variable,2.3,-,N/A,,Mostly Cloudy,0,2012-12-08 01:20:00
3:50 AM,42.8,35.6,76,30.06,6.2,Variable,2.3,-,N/A,,Mostly Cloudy,0,2012-12-08 01:50:00
4:20 AM,42.8,37.4,81,30.06,6.2,East,3.5,-,N/A,Rain,Light Rain Showers,90,2012-12-08 02:20:00
4:50 AM,42.8,39.2,87,30.06,6.2,Variable,2.3,-,N/A,,Mostly Cloudy,0,2012-12-08 02:50:00
5:20 AM,42.8,39.2,87,30.06,6.2,Variable,2.3,-,N/A,,Mostly Cloudy,0,2012-12-08 03:20:00
5:50 AM,42.8,39.2,87,30.06,6.2,Variable,2.3,-,N/A,,Mostly Cloudy,0,2012-12-08 03:50:00
6:20 AM,42.8,35.6,76,30.06,6.2,NE,5.8,-,N/A,,Mostly Cloudy,50,2012-12-08 04:20:00
6:50 AM,44.6,35.6,71,30.06,6.2,NE,5.8,-,N/A,,Mostly Cloudy,50,2012-12-08 04:50:00
7:20 AM,44.6,37.4,76,30.06,6.2,South,4.6,-,N/A,,Mostly Cloudy,180,2012-12-08 05:20:00
7:50 AM,44.6,37.4,76,30.06,6.2,Variable,1.2,-,N/A,,Mostly Cloudy,0,2012-12-08 05:50:00
8:00 AM,45,37,66,30.10,6,East,1.2,,,Rain,Light Rain Showers,100,2012-12-08 06:00:00
8:20 AM,44.6,39.2,81,30.09,6.2,Variable,1.2,-,N/A,,Mostly Cloudy,0,2012-12-08 06:20:00
8:50 AM,50.0,39.2,66,30.09,6.2,Variable,4.6,-,N/A,,Mostly Cloudy,0,2012-12-08 06:50:00
9:20 AM,50.0,37.4,62,30.09,6.2,SSE,5.8,-,N/A,,Mostly Cloudy,150,2012-12-08 07:20:00
9:50 AM,48.2,33.8,58,30.09,6.2,South,6.9,-,N/A,,Mostly Cloudy,170,2012-12-08 07:50:00
10:20 AM,48.2,33.8,58,30.09,6.2,South,4.6,-,N/A,,Scattered Clouds,180,2012-12-08 08:20:00
10:50 AM,48.2,37.4,66,30.09,6.2,SE,8.1,-,N/A,,Scattered Clouds,140,2012-12-08 08:50:00
11:20 AM,48.2,37.4,66,30.09,6.2,ESE,8.1,-,N/A,,Scattered Clouds,120,2012-12-08 09:20:00
11:50 AM,50.0,37.4,62,30.06,6.2,ESE,6.9,-,N/A,,Scattered Clouds,120,2012-12-08 09:50:00
12:20 PM,50.0,37.4,62,30.06,6.2,ESE,6.9,-,N/A,,Scattered Clouds,120,2012-12-08 10:20:00
12:50 PM,50.0,37.4,62,30.06,6.2,ESE,8.1,-,N/A,,Scattered Clouds,120,2012-12-08 10:50:00
1:20 PM,50.0,35.6,58,30.04,6.2,ESE,8.1,-,N/A,,Scattered Clouds,110,2012-12-08 11:20:00
1:50 PM,50.0,35.6,58,30.04,6.2,ESE,8.1,-,N/A,,Scattered Clouds,110,2012-12-08 11:50:00
2:00 PM,50,36,48,30.05,6,ESE,8.1,,,,Partly Cloudy,110,2012-12-08 12:00:00
2:20 PM,50.0,37.4,62,30.01,6.2,ESE,9.2,-,N/A,,Scattered Clouds,120,2012-12-08 12:20:00
2:50 PM,50.0,33.8,54,30.01,6.2,SE,8.1,-,N/A,,Scattered Clouds,130,2012-12-08 12:50:00
3:20 PM,50.0,32.0,50,30.01,6.2,ESE,6.9,-,N/A,,Partly Cloudy,120,2012-12-08 13:20:00
3:50 PM,50.0,32.0,50,30.01,6.2,ESE,5.8,-,N/A,,Scattered Clouds,110,2012-12-08 13:50:00
4:20 PM,50.0,33.8,54,30.01,6.2,ESE,6.9,-,N/A,,Scattered Clouds,120,2012-12-08 14:20:00
4:50 PM,50.0,33.8,54,30.01,6.2,ESE,6.9,-,N/A,,Scattered Clouds,110,2012-12-08 14:50:00
5:20 PM,50.0,32.0,50,30.01,6.2,East,5.8,-,N/A,,Scattered Clouds,100,2012-12-08 15:20:00
5:50 PM,50.0,33.8,54,30.01,6.2,East,6.9,-,N/A,,Scattered Clouds,100,2012-12-08 15:50:00
6:20 PM,50.0,35.6,58,30.01,6.2,East,8.1,-,N/A,,Scattered Clouds,100,2012-12-08 16:20:00
6:50 PM,50.0,35.6,58,29.98,-9999.0,East,6.9,-,N/A,,Clear,90,2012-12-08 16:50:00
7:20 PM,50.0,35.6,58,29.98,-9999.0,East,6.9,-,N/A,,Clear,80,2012-12-08 17:20:00
7:50 PM,50.0,35.6,58,29.98,-9999.0,ENE,6.9,-,N/A,,Clear,60,2012-12-08 17:50:00
8:00 PM,50,35,46,30.00,6,ENE,6.9,,,,,60,2012-12-08 18:00:00
8:20 PM,51.8,35.6,54,29.98,-9999.0,East,6.9,-,N/A,,Clear,90,2012-12-08 18:20:00
8:50 PM,51.8,37.4,58,29.98,-9999.0,East,8.1,-,N/A,,Clear,90,2012-12-08 18:50:00
9:20 PM,51.8,37.4,58,29.98,-9999.0,ESE,10.4,-,N/A,,Clear,110,2012-12-08 19:20:00
9:50 PM,51.8,33.8,50,29.95,-9999.0,ESE,11.5,-,N/A,,Clear,110,2012-12-08 19:50:00
10:20 PM,51.8,35.6,54,29.95,-9999.0,ESE,12.7,-,N/A,,Clear,120,2012-12-08 20:20:00
10:50 PM,51.8,32.0,47,29.95,-9999.0,SE,16.1,-,N/A,,Clear,130,2012-12-08 20:50:00
11:20 PM,51.8,33.8,50,29.95,-9999.0,SE,16.1,-,N/A,,Clear,130,2012-12-08 21:20:00
11:50 PM,51.8,32.0,47,29.95,-9999.0,SE,16.1,-,N/A,,Clear,130,2012-12-08 21:50:00